TimeWET,TemperatureF,Dew PointF,Humidity,Sea Level PressureIn,VisibilityMPH,Wind Direction,Wind SpeedMPH,Gust SpeedMPH,PrecipitationIn,Events,Conditions,WindDirDegrees,DateUTC
12:00 AM,60,60,100,30.01,5,WSW,5.8,,,Rain,Light Rain,240,2012-11-09 00:00:00
12:00 AM,60.8,60.8,100,30.04,5.0,WSW,5.8,-,N/A,,Mostly Cloudy,240,2012-11-09 00:00:00
12:30 AM,60.8,60.8,100,30.04,6.2,WSW,5.8,-,N/A,,Mostly Cloudy,240,2012-11-09 00:30:00
1:00 AM,60.8,60.8,100,30.04,6.2,WSW,5.8,-,N/A,,Mostly Cloudy,250,2012-11-09 01:00:00
1:30 AM,59.0,59.0,100,30.01,6.2,WSW,5.8,-,N/A,,Mostly Cloudy,250,2012-11-09 01:30:00
2:00 AM,59.0,59.0,100,30.01,6.2,WSW,3.5,-,N/A,,Mostly Cloudy,250,2012-11-09 02:00:00
2:30 AM,59.0,57.2,94,30.01,6.2,WSW,3.5,-,N/A,,Mostly Cloudy,240,2012-11-09 02:30:00
3:00 AM,59,57,92,30.00,6,WSW,3.5,,,,Unknown Precipitation,240,2012-11-09 03:00:00
3:00 AM,59.0,57.2,94,30.01,6.2,WSW,3.5,-,N/A,,Mostly Cloudy,240,2012-11-09 03:00:00
3:30 AM,59.0,57.2,94,30.01,6.2,WSW,3.5,-,N/A,,Mostly Cloudy,240,2012-11-09 03:30:00
4:00 AM,59.0,59.0,100,30.01,-9999.0,WSW,3.5,-,N/A,,Mostly Cloudy,250,2012-11-09 04:00:00
4:30 AM,59.0,59.0,100,30.01,6.2,WSW,3.5,-,N/A,,Mostly Cloudy,240,2012-11-09 04:30:00
5:00 AM,59.0,59.0,100,30.01,6.2,WSW,3.5,-,N/A,,Mostly Cloudy,250,2012-11-09 05:00:00
5:30 AM,59.0,59.0,100,30.01,6.2,Variable,2.3,-,N/A,,Mostly Cloudy,0,2012-11-09 05:30:00
6:00 AM,59,59,99,30.01,6,SW,4.6,,,,Overcast,220,2012-11-09 06:00:00
6:00 AM,59.0,59.0,100,30.01,6.2,SW,4.6,-,N/A,,Mostly Cloudy,220,2012-11-09 06:00:00
6:30 AM,59.0,59.0,100,30.04,6.2,SW,4.6,-,N/A,,Mostly Cloudy,220,2012-11-09 06:30:00
7:00 AM,59.0,59.0,100,30.04,6.2,WSW,5.8,-,N/A,Rain,Rain,250,2012-11-09 07:00:00
7:30 AM,59.0,59.0,100,30.04,3.7,West,5.8,-,N/A,Rain,Rain,260,2012-11-09 07:30:00
8:00 AM,59.0,59.0,100,30.06,3.7,WSW,6.9,-,N/A,,Mostly Cloudy,250,2012-11-09 08:00:00
8:30 AM,59.0,59.0,100,30.06,3.7,West,5.8,-,N/A,,Mostly Cloudy,270,2012-11-09 08:30:00
8:47 AM,59,59,98,30.06,4,West,5.8,,,Rain,Light Rain,260,2012-11-09 08:47:00
9:00 AM,59.0,59.0,100,30.06,3.7,West,5.8,-,N/A,,Mostly Cloudy,260,2012-11-09 09:00:00
9:30 AM,59.0,59.0,100,30.06,5.0,West,5.8,-,N/A,,Mostly Cloudy,260,2012-11-09 09:30:00
10:00 AM,60.8,59.0,94,30.06,5.0,West,4.6,-,N/A,,Mostly Cloudy,270,2012-11-09 10:00:00
11:00 AM,62.6,55.4,77,30.06,6.2,WSW,3.5,-,N/A,,Mostly Cloudy,240,2012-11-09 11:00:00
11:30 AM,62.6,55.4,77,30.06,6.2,SW,4.6,-,N/A,,Mostly Cloudy,220,2012-11-09 11:30:00
12:00 PM,62,53,65,30.02,6,West,4.6,,,,Unknown Precipitation,270,2012-11-09 12:00:00
12:00 PM,62.6,53.6,72,30.04,6.2,West,4.6,-,N/A,,Mostly Cloudy,260,2012-11-09 12:00:00
12:30 PM,62.6,53.6,72,30.04,6.2,NW,4.6,-,N/A,,Mostly Cloudy,320,2012-11-09 12:30:00
1:00 PM,64.4,53.6,68,30.04,6.2,WNW,6.9,-,N/A,,Mostly Cloudy,290,2012-11-09 13:00:00
1:30 PM,66.2,55.4,68,30.01,6.2,West,3.5,-,N/A,,Mostly Cloudy,280,2012-11-09 13:30:00
2:00 PM,66.2,55.4,68,30.01,6.2,WSW,5.8,-,N/A,,Mostly Cloudy,250,2012-11-09 14:00:00
2:30 PM,64.4,55.4,73,30.01,6.2,West,6.9,-,N/A,,Mostly Cloudy,280,2012-11-09 14:30:00
3:00 PM,65,51,52,29.97,6,WNW,4.6,,,,Unknown Precipitation,290,2012-11-09 15:00:00
3:00 PM,66.2,50.0,56,30.01,6.2,NW,6.9,-,N/A,,Mostly Cloudy,310,2012-11-09 15:00:00
3:30 PM,66.2,51.8,60,30.01,6.2,West,4.6,-,N/A,,Mostly Cloudy,270,2012-11-09 15:30:00
4:00 PM,66.2,51.8,60,30.01,6.2,West,5.8,-,N/A,,Mostly Cloudy,270,2012-11-09 16:00:00
4:30 PM,66.2,55.4,68,30.01,6.2,WSW,4.6,-,N/A,,Mostly Cloudy,250,2012-11-09 16:30:00
5:00 PM,64.4,53.6,68,30.01,6.2,WSW,5.8,-,N/A,,Mostly Cloudy,250,2012-11-09 17:00:00
5:30 PM,64.4,51.8,64,30.01,6.2,WSW,4.6,-,N/A,,Mostly Cloudy,240,2012-11-09 17:30:00
6:00 PM,64,54,61,29.99,6,WSW,3.5,,,,Unknown Precipitation,240,2012-11-09 18:00:00
6:00 PM,64.4,53.6,68,30.01,6.2,WSW,3.5,-,N/A,,Mostly Cloudy,240,2012-11-09 18:00:00
6:30 PM,64.4,53.6,68,30.01,6.2,SW,3.5,-,N/A,,Mostly Cloudy,220,2012-11-09 18:30:00
7:00 PM,62.6,53.6,72,30.01,6.2,SSW,3.5,-,N/A,,Mostly Cloudy,210,2012-11-09 19:00:00
7:30 PM,62.6,55.4,77,30.04,6.2,SW,3.5,-,N/A,,Mostly Cloudy,220,2012-11-09 19:30:00
8:00 PM,62.6,51.8,68,30.04,6.2,SW,5.8,-,N/A,,Mostly Cloudy,220,2012-11-09 20:00:00
8:30 PM,62.6,57.2,82,30.04,6.2,SW,6.9,-,N/A,,Mostly Cloudy,220,2012-11-09 20:30:00
9:00 PM,61,56,77,30.02,6,West,8.1,,,,Unknown Precipitation,270,2012-11-09 21:00:00
9:00 PM,60.8,55.4,82,30.04,6.2,West,6.9,-,N/A,,Mostly Cloudy,270,2012-11-09 21:00:00
9:30 PM,60.8,55.4,82,30.04,6.2,West,6.9,-,N/A,,Mostly Cloudy,280,2012-11-09 21:30:00
10:00 PM,59.0,55.4,88,30.04,6.2,West,4.6,-,N/A,,Mostly Cloudy,280,2012-11-09 22:00:00
10:30 PM,59.0,55.4,88,30.04,6.2,WSW,3.5,-,N/A,,Mostly Cloudy,250,2012-11-09 22:30:00
11:00 PM,57.2,55.4,94,30.04,6.2,WSW,3.5,-,N/A,,Mostly Cloudy,240,2012-11-09 23:00:00
11:30 PM,57.2,55.4,94,30.04,6.2,SW,3.5,-,N/A,,Mostly Cloudy,230,2012-11-09 23:30:00